Flag for Honduras Weather past 2 weeks in Choloma, Honduras

Now
88 °F

Scattered clouds.


Feels Like: 98 °F
Forecast: N/A
Wind: 12 mph from Northeast

Location: La Mesa San Pedro Sula

Current Time: Oct 20, 2014 at 4:14:33 PM

Latest Report: Oct 20, 2014 at 4:00 PM


Visibility: N/A

Pressure: 29.71 "Hg

Humidity: 66%

Dew point: 75 °F

Location of CholomaLocation

Historic Weather in Choloma — Graph

°F

Choloma temperature yesterday

Maximum temperature yesterday: 90 °F (at 12:00 PM)
Minimum temperature yesterday: 75 °F (at 4:00 AM)
Average temperature yesterday: 81 °F

Past Weeks' High & Low Weather Summary

 TemperatureHumidityPressure
High95 °F (Oct 6, 2:00 PM)100% (Oct 5, 11:00 PM)29.98 "Hg (Oct 5, 11:00 PM)
Low73 °F (Oct 6, 5:00 AM)41% (Oct 6, 2:00 PM)29.68 "Hg (Oct 20, 3:00 PM)
Average80 °F87%29.87 "Hg
* Reported Oct 5 3:00 PM — Oct 20 3:00 PM, Choloma, Weather by CustomWeather, © 2014

Note: Actual official high and low records may vary slightly from our data, if they occured in-between our weather recording intervals... More about our weather records

Advertising

Choloma weather history for previous 24 hours

 ConditionsComfort  
Time TempWeatherWind HumidityBarometerVisibility
3:00 PM
Oct 20
90 °FBroken clouds.14 mph67%29.68 "HgN/A
2:00 PM91 °FScattered clouds.7 mph56%29.71 "HgN/A
1:00 PM91 °FPartly sunny.7 mph56%29.74 "HgN/A
12:00 PM93 °FPartly sunny.2 mph59%29.77 "HgN/A
11:00 AM90 °FPartly sunny.5 mph63%29.83 "HgN/A
10:00 AM90 °FScattered clouds.No wind63%29.86 "HgN/A
9:00 AM84 °FPartly sunny.7 mph70%29.86 "HgN/A
8:00 AM82 °FPartly sunny.No wind84%29.86 "HgN/A
7:00 AM79 °FPartly sunny.No wind94%29.86 "HgN/A
6:00 AM77 °FScattered clouds.No wind94%29.86 "HgN/A
5:00 AM77 °FPassing clouds.No wind100%29.83 "HgN/A
4:00 AM77 °FPassing clouds.No wind94%29.83 "HgN/A
3:00 AM77 °FPassing clouds.5 mph94%29.86 "HgN/A
2:00 AM77 °FPassing clouds.5 mph100%29.86 "HgN/A
1:00 AM77 °FPassing clouds.5 mph100%29.86 "HgN/A
12:00 AM77 °FPassing clouds.5 mph100%29.89 "HgN/A
11:00 PM
Oct 19
79 °FPassing clouds.No wind94%29.89 "HgN/A
9:00 PM79 °FPassing clouds.No wind94%29.89 "HgN/A
8:00 PM79 °FPassing clouds.5 mph94%29.86 "HgN/A
7:00 PM79 °FPassing clouds.5 mph94%29.86 "HgN/A
6:00 PM81 °FPassing clouds.7 mph89%29.83 "HgN/A
5:00 PM82 °FScattered clouds.9 mph84%29.80 "HgN/A
4:00 PM84 °FScattered clouds.12 mph43%29.77 "HgN/A
Weather by CustomWeather, © 2014

See weather overviewHow to use our weather pages